Location: Newark
(31.5350°N, 35.0986°E)
Time: 08:54:05
(UTC+00:00)

deb Explorer IX - Visible Passes

Search period start: 19 September 2019 00:00
Search period end: 29 September 2019 00:00
Orbit: 544 x 1107 km, 38.8° (Epoch: 18 September)

Date Brightness Start Highest point End Pass type
(mag) Time Alt. Az. Time Alt. Az. Time Alt. Az.
19 Sep ? 01:05:51 29° NNE 01:05:51 29° NNE 01:08:37 10° ENE visible
19 Sep ? 02:48:08 10° WNW 02:52:09 35° N 02:55:57 10° ENE visible
20 Sep ? 00:45:10 21° NE 00:45:10 21° NE 00:46:51 10° ENE visible
20 Sep ? 02:26:32 12° NW 02:30:20 36° N 02:34:11 10° E visible
21 Sep ? 00:24:30 13° NE 00:24:30 13° NE 00:25:07 10° ENE visible
21 Sep ? 02:05:52 20° NW 02:08:31 38° N 02:12:25 10° E visible
22 Sep ? 01:45:16 30° NNW 01:46:42 39° N 01:50:41 10° E visible
23 Sep ? 01:24:44 40° N 01:24:53 40° N 01:28:57 10° E visible
24 Sep ? 01:04:17 34° NE 01:04:17 34° NE 01:07:13 10° E visible
24 Sep ? 02:45:40 10° WNW 02:50:07 65° SSW 02:54:12 10° SE visible
25 Sep ? 00:43:55 21° ENE 00:43:55 21° ENE 00:45:31 10° E visible
25 Sep ? 02:25:19 21° WNW 02:28:18 64° SSW 02:32:25 10° SE visible
26 Sep ? 00:23:39 11° E 00:23:39 11° E 00:23:48 10° E visible
26 Sep ? 02:05:04 41° W 02:06:28 62° SSW 02:10:40 10° SE visible
27 Sep ? 01:44:55 60° SSW 01:44:55 60° SSW 01:48:56 10° SE visible
27 Sep ? 18:05:53 10° SSW 18:08:00 19° SSW 18:08:00 19° SSW visible
28 Sep ? 01:24:52 31° SE 01:24:52 31° SE 01:27:11 10° SE visible
28 Sep ? 16:02:30 10° SE 16:03:47 10° SE 16:05:05 10° SE visible
28 Sep ? 17:43:46 10° SW 17:48:06 33° S 17:48:06 33° S visible
